[[{"header":{"parameterUnit":"m.s-1","parameterCategory":1,"la1":30.2991,"la2":30.254,"lo1":-89.0895,"lo2":-89.0444,"dy":0.0017,"dx":0.0017,"nx":28,"ny":28,"refTime":"2024-07-18T09:00:00:Z","depth":0,"parameterNumber":2,"parameterNumberName":"U-component_of_WINDS"},"data":[0,0,0,0,0,0,0,0,0,0,0,0,0,0,0,0,0,0,0,0,0,0,0,0,0,0,0,0,0,0,0,0,0,0,0,0,0,0,0,0,0,0,0,0,0,0,0,0,0,0,0,0,0,0,0,0,0,0,-1.962,-1.962,0,-1.9596,-1.9595,-1.9595,-1.9577,-1.9576,-1.9576,-1.9576,-1.9551,-1.9551,-1.955,0,0,0,0,0,0,0,0,0,0,0,0,0,-1.9649,-1.9648,-1.962,-1.962,-1.9619,-1.9596,-1.9595,-1.9595,-1.9577,-1.9576,-1.9576,-1.9576,-1.9551,-1.9551,-1.955,0,0,0,0,0,0,0,0,0,0,0,0,0,-1.9632,-1.9648,-1.962,-1.9607,-1.9606,-1.9596,-1.9595,-1.9595,-1.9577,-1.9576,-1.9576,-1.9576,-1.9552,-1.9551,-1.955,-1.9551,0,0,-1.9548,-1.9547,0,0,0,0,0,0,0,0,-1.9633,-1.9631,-1.961,-1.9608,-1.9607,-1.9589,-1.9596,-1.958,-1.9577,-1.9588,-1.9576,-1.9576,-1.9564,-1.9562,-1.9558,-1.9549,-1.9548,-1.9548,-1.9547,-1.9547,-1.9547,0,0,0,0,0,0,0,-1.9634,-1.9631,-1.961,-1.9609,-1.9607,-1.9602,-1.96,-1.9593,-1.9578,-1.9587,-1.9585,-1.9583,-1.9563,-1.9559,-1.9557,-1.9548,-1.9548,-1.9547,-1.9547,-1.9546,-1.9535,-1.9535,0,0,0,0,0,0,-1.9637,-1.9633,-1.9611,-1.961,-1.9619,-1.9602,-1.9599,-1.9595,-1.9578,-1.9575,-1.9583,-1.9582,-1.956,-1.9558,-1.9556,-1.9554,-1.9547,-1.9546,-1.9546,-1.9535,-1.9535,-1.9536,0,0,0,0,0,0,-1.9638,-1.9635,-1.9612,-1.9621,-1.9617,-1.9602,-1.9597,-1.9594,-1.959,-1.9575,-1.9572,-1.9582,-1.956,-1.9558,-1.9551,-1.9553,-1.9546,-1.9545,-1.9535,-1.9535,-1.9535,-1.955,0,0,0,0,0,0,-1.9639,-1.9636,-1.9636,-1.9621,-1.9617,-1.9608,-1.9597,-1.9594,-1.9589,-1.9587,-1.9573,-1.957,-1.956,-1.9553,-1.9551,-1.9552,-1.9545,-1.9535,-1.9535,-1.9535,-1.955,-1.9551,-1.9552,0,0,0,0,0,-1.964,-1.9642,-1.9637,-1.9634,-1.9617,-1.9608,-1.9606,-1.9594,-1.9589,-1.9589,-1.9579,-1.957,-1.9553,-1.9552,-1.955,-1.9551,-1.9535,-1.9535,-1.9535,-1.9549,-1.9551,-1.9552,0,0,0,0,0,0,-1.9659,-1.964,-1.9634,-1.9631,-1.9621,-1.9605,-1.9605,-1.9597,-1.9588,-1.9587,-1.9572,-1.9569,-1.9564,-1.9557,-1.9556,-1.9549,-1.9543,-1.9543,-1.9554,-1.9555,-1.9557,-1.9558,-1.9544,0,0,0,0,0,-1.9663,-1.9657,-1.9641,-1.964,-1.9635,-1.9621,-1.9617,-1.9608,-1.9597,-1.9593,-1.9583,-1.9572,-1.9564,-1.956,-1.9552,-1.9548,-1.9544,-1.9547,-1.9549,-1.955,-1.955,-1.9546,-1.9546,-1.9537,-1.9537,-1.9537,0,0,-1.9671,-1.966,-1.9657,-1.9643,-1.9635,-1.9629,-1.9618,-1.9612,-1.9607,-1.9592,-1.9585,-1.9577,-1.9565,-1.9559,-1.9557,-1.9553,-1.9551,-1.955,-1.9551,-1.9551,-1.9546,-1.9547,-1.9548,-1.9537,-1.9537,-1.9537,0,0,-1.9682,-1.9674,-1.9671,-1.9662,-1.9649,-1.9639,-1.9638,-1.9623,-1.9616,-1.9609,-1.9597,-1.9591,-1.9578,-1.9569,-1.9563,-1.9567,-1.9559,-1.9565,-1.9572,-1.9568,-1.9569,-1.9569,-1.957,-1.957,-1.9565,-1.9565,-1.9565,0,-1.9694,-1.9684,-1.9671,-1.9665,-1.9658,-1.9644,-1.964,-1.9633,-1.9618,-1.9613,-1.9609,-1.9591,-1.9582,-1.9573,-1.9574,-1.957,-1.9568,-1.9567,-1.957,-1.957,-1.9571,-1.9571,-1.9571,-1.9566,-1.9566,-1.9566,-1.9566,0,-1.9698,-1.9691,-1.969,-1.9675,-1.9669,-1.9664,-1.9649,-1.9644,-1.9636,-1.9626,-1.9617,-1.9605,-1.9594,-1.9591,-1.9583,-1.9581,-1.9579,-1.9573,-1.9566,-1.9572,-1.9572,-1.9572,-1.9567,-1.9567,-1.9567,-1.9567,0,0,-1.9721,-1.9697,-1.9697,-1.9689,-1.9672,-1.9667,-1.9661,-1.9649,-1.9644,-1.9633,-1.9627,-1.9615,-1.9609,-1.9602,-1.9592,-1.9589,-1.9591,-1.9583,-1.9582,-1.9584,-1.9586,-1.959,-1.9591,-1.9586,-1.9586,-1.9586,-1.9587,0,-1.9729,-1.9717,-1.9704,-1.9697,-1.9689,-1.9674,-1.9669,-1.9658,-1.9648,-1.9639,-1.9628,-1.962,-1.9613,-1.9608,-1.9604,-1.9592,-1.9591,-1.9592,-1.9579,-1.9579,-1.9582,-1.9591,-1.9596,-1.9597,-1.9587,-1.9587,-1.9587,0,-1.9736,-1.9725,-1.9717,-1.9699,-1.9695,-1.9691,-1.9677,-1.967,-1.9656,-1.9649,-1.964,-1.963,-1.9621,-1.9616,-1.9604,-1.9604,-1.9598,-1.9591,-1.9591,-1.9589,-1.9583,-1.9588,-1.9598,-1.9598,-1.9587,-1.9587,-1.9587,0,-1.9752,-1.9736,-1.9728,-1.9722,-1.9701,-1.9697,-1.9689,-1.9675,-1.9668,-1.9656,-1.9651,-1.9639,-1.9632,-1.9622,-1.9608,-1.9606,-1.9597,-1.9591,-1.959,-1.959,-1.9589,-1.9589,-1.9597,-1.9586,-1.9586,-1.9586,-1.9586,0,-1.9761,-1.9756,-1.9734,-1.973,-1.9723,-1.9707,-1.9701,-1.9691,-1.9678,-1.9671,-1.9658,-1.9651,-1.9633,-1.9624,-1.9613,-1.9603,-1.9601,-1.9594,-1.9591,-1.9595,-1.9595,-1.959,-1.9589,-1.9586,-1.9586,-1.9586,-1.9586,0,-1.9778,-1.9763,-1.9753,-1.9734,-1.9729,-1.9725,-1.9708,-1.9702,-1.9691,-1.9681,-1.9678,-1.966,-1.9648,-1.9633,-1.9617,-1.9609,-1.9601,-1.9597,-1.9605,-1.9604,-1.9603,-1.9603,-1.9608,-1.9607,-1.9598,-1.9598,-1.9598,0,-1.9784,-1.978,-1.9759,-1.9753,-1.9744,-1.9735,-1.9727,-1.9711,-1.9703,-1.9686,-1.9682,-1.9669,-1.9658,-1.9639,-1.9624,-1.9611,-1.9606,-1.9609,-1.9605,-1.9608,-1.9605,-1.9605,-1.9604,-1.961,-1.961,-1.961,-1.961,0,-1.9796,-1.9789,-1.9778,-1.9764,-1.9755,-1.9744,-1.9732,-1.9727,-1.9708,-1.97,-1.9688,-1.9679,-1.9661,-1.9648,-1.9633,-1.9623,-1.9613,-1.9612,-1.9611,-1.9614,-1.9619,-1.9615,-1.9608,-1.9612,-1.9612,-1.9611,-1.9611,-1.9611,-1.9807,-1.9802,-1.9786,-1.9774,-1.9763,-1.9751,-1.9744,-1.9732,-1.9721,-1.9705,-1.9696,-1.9683,-1.9668,-1.9646,-1.9637,-1.9626,-1.9623,-1.9622,-1.9621,-1.9621,-1.9622,-1.9621,-1.9624,-1.9623,-1.9623,-1.9623,-1.9623,0,-1.9817,-1.9806,-1.9795,-1.9778,-1.9768,-1.9759,-1.9745,-1.9737,-1.9726,-1.9713,-1.9701,-1.9686,-1.9672,-1.9656,-1.9642,-1.9636,-1.9631,-1.9633,-1.9633,-1.963,-1.9626,-1.9628,-1.9637,-1.9637,-1.9637,-1.9637,-1.9637,-1.9637,-1.9821,-1.9811,-1.9802,-1.9786,-1.9774,-1.9761,-1.9754,-1.9743,-1.9731,-1.9715,-1.9703,-1.9693,-1.9678,-1.9662,-1.9649,-1.9644,-1.9639,-1.9642,-1.9636,-1.9632,-1.9631,-1.963,-1.9631,-1.9641,-1.9641,-1.9641,-1.9641,-1.9641]},{"header":{"parameterUnit":"m.s-1","parameterCategory":1,"la1":30.2991,"la2":30.254,"lo1":-89.0895,"lo2":-89.0444,"dy":0.0017,"dx":0.0017,"nx":28,"ny":28,"refTime":"2024-07-18T09:00:00:Z","depth":0,"parameterNumber":3,"parameterNumberName":"V-component_of_WINDS"},"data":[0,0,0,0,0,0,0,0,0,0,0,0,0,0,0,0,0,0,0,0,0,0,0,0,0,0,0,0,0,0,0,0,0,0,0,0,0,0,0,0,0,0,0,0,0,0,0,0,0,0,0,0,0,0,0,0,0,0,3.0587,3.0587,0,3.0521,3.0521,3.052,3.0371,3.0368,3.0365,3.0362,3.0297,3.0298,3.0299,0,0,0,0,0,0,0,0,0,0,0,0,0,3.0586,3.0587,3.0587,3.0587,3.0586,3.0522,3.0521,3.052,3.0372,3.0368,3.0364,3.0361,3.0296,3.0298,3.0299,0,0,0,0,0,0,0,0,0,0,0,0,0,3.0561,3.0587,3.0588,3.0504,3.0496,3.0522,3.0521,3.0519,3.0372,3.0368,3.0363,3.0359,3.0296,3.0298,3.0299,3.0402,0,0,3.0304,3.0305,0,0,0,0,0,0,0,0,3.0562,3.0561,3.0517,3.051,3.0501,3.045,3.0496,3.048,3.0374,3.0419,3.0362,3.0357,3.0352,3.0348,3.0346,3.0399,3.0396,3.0305,3.0306,3.0306,3.0307,0,0,0,0,0,0,0,3.0564,3.0563,3.0561,3.0517,3.0507,3.047,3.0462,3.0492,3.0412,3.0415,3.0404,3.0398,3.0346,3.0345,3.0344,3.0395,3.0305,3.0306,3.0307,3.0308,3.0525,3.053,0,0,0,0,0,0,3.0578,3.0565,3.0563,3.0559,3.0521,3.0474,3.0464,3.0471,3.0411,3.0398,3.0402,3.0391,3.0344,3.0342,3.0341,3.0454,3.0306,3.0308,3.0309,3.0521,3.0526,3.0531,0,0,0,0,0,0,3.0578,3.0579,3.0566,3.0559,3.0555,3.0479,3.0488,3.0472,3.047,3.0402,3.0387,3.0415,3.0341,3.0338,3.0387,3.045,3.0309,3.031,3.0515,3.0522,3.0529,3.0684,0,0,0,0,0,0,3.0579,3.058,3.0618,3.0561,3.0556,3.0614,3.0491,3.0474,3.0473,3.0459,3.041,3.0398,3.0337,3.0385,3.0389,3.045,3.0311,3.0509,3.0518,3.0527,3.0673,3.0696,3.0715,0,0,0,0,0,3.0579,3.0665,3.0621,3.0621,3.0601,3.0617,3.0614,3.0542,3.0479,3.0516,3.0472,3.0399,3.0443,3.0391,3.0394,3.0457,3.0504,3.0516,3.0526,3.0664,3.0691,3.0715,0,0,0,0,0,0,3.0733,3.0656,3.0606,3.0676,3.0654,3.0592,3.0637,3.0574,3.057,3.0557,3.0468,3.0458,3.0518,3.0492,3.0436,3.0551,3.0462,3.0474,3.0566,3.0591,3.0612,3.0616,3.0313,0,0,0,0,0,3.0775,3.0793,3.0726,3.0794,3.0786,3.0714,3.0718,3.0664,3.0638,3.0629,3.0588,3.0566,3.0574,3.0582,3.0586,3.0669,3.0655,3.0714,3.0735,3.0752,3.0763,3.0803,3.0827,3.0567,3.0567,3.0566,0,0,3.0862,3.0822,3.084,3.0824,3.0801,3.0822,3.0707,3.0735,3.075,3.0633,3.0675,3.0645,3.0615,3.068,3.0707,3.0661,3.0832,3.0766,3.0781,3.0781,3.0816,3.0841,3.0863,3.0574,3.0573,3.0572,0,0,3.103,3.1003,3.1055,3.1034,3.1,3.0951,3.0964,3.0912,3.0887,3.0928,3.0839,3.0857,3.0874,3.0855,3.0848,3.1008,3.094,3.1013,3.1122,3.1162,3.1183,3.12,3.1256,3.1277,3.1024,3.1024,3.1024,0,3.1142,3.117,3.1091,3.1124,3.1119,3.1013,3.1066,3.1049,3.1019,3.1018,3.0966,3.0984,3.0957,3.1015,3.1054,3.1053,3.1064,3.1017,3.1186,3.1203,3.1218,3.127,3.1291,3.1033,3.1032,3.1031,3.103,0,3.1309,3.133,3.1377,3.1348,3.1349,3.1392,3.1319,3.133,3.1276,3.1233,3.1276,3.1239,3.1232,3.1243,3.1191,3.1294,3.1266,3.1202,3.111,3.1253,3.13,3.1319,3.1046,3.1042,3.104,3.1038,0,0,3.1571,3.1498,3.1516,3.1501,3.1455,3.147,3.1508,3.1501,3.1511,3.1494,3.1522,3.1539,3.1478,3.1471,3.1416,3.1452,3.1578,3.1382,3.138,3.1418,3.1687,3.1734,3.1759,3.1534,3.1537,3.154,3.1689,0,3.1727,3.1786,3.1716,3.179,3.1808,3.1708,3.174,3.1716,3.1677,3.1686,3.1643,3.1655,3.1576,3.157,3.1601,3.1557,3.1631,3.1545,3.1559,3.156,3.1567,3.1783,3.1834,3.1976,3.1707,3.171,3.1712,0,3.1917,3.1907,3.1983,3.193,3.1935,3.1966,3.1953,3.1964,3.1934,3.1903,3.1894,3.1827,3.1861,3.1773,3.1816,3.176,3.1761,3.174,3.1744,3.1741,3.1644,3.1784,3.2019,3.204,3.1741,3.1739,3.1737,0,3.2098,3.2104,3.2149,3.214,3.2081,3.2104,3.2081,3.2046,3.2046,3.2035,3.2034,3.2028,3.2025,3.2021,3.1955,3.1898,3.2007,3.1914,3.1981,3.1983,3.2007,3.2006,3.2243,3.2012,3.2012,3.2011,3.2011,0,3.2278,3.2328,3.2229,3.2257,3.231,3.2229,3.2283,3.225,3.222,3.2239,3.2153,3.2173,3.2086,3.2097,3.2046,3.2088,3.2088,3.2063,3.2048,3.207,3.2073,3.2068,3.2055,3.2017,3.2016,3.2015,3.2014,0,3.2488,3.2424,3.2467,3.2407,3.2393,3.2435,3.2383,3.2406,3.2362,3.2387,3.2389,3.2319,3.2327,3.2261,3.2258,3.2223,3.2289,3.2259,3.2299,3.2288,3.2358,3.2352,3.26,3.2627,3.2381,3.2384,3.2386,0,3.2606,3.2642,3.2585,3.2592,3.2572,3.2584,3.2583,3.2505,3.2507,3.2475,3.2502,3.2503,3.2499,3.2517,3.2466,3.2462,3.2429,3.2517,3.2428,3.2448,3.2428,3.2426,3.2428,3.2535,3.2538,3.254,3.2542,0,3.2822,3.2788,3.2789,3.278,3.278,3.2769,3.2752,3.2763,3.2678,3.2685,3.2691,3.2689,3.2684,3.2685,3.2671,3.2647,3.2581,3.2571,3.2585,3.2606,3.2627,3.2614,3.2347,3.2565,3.2563,3.2561,3.256,3.2559,3.2987,3.3013,3.2977,3.2981,3.296,3.2947,3.2965,3.2922,3.2926,3.2915,3.2869,3.2884,3.2852,3.2826,3.2808,3.2818,3.2775,3.2798,3.2803,3.2809,3.2821,3.2628,3.2815,3.2815,3.2814,3.2813,3.2813,0,3.3196,3.3168,3.3172,3.3151,3.3154,3.3091,3.3069,3.3075,3.3089,3.3065,3.3062,3.3069,3.307,3.3019,3.3014,3.3031,3.3001,3.3032,3.3029,3.3024,3.286,3.2847,3.3057,3.3057,3.3057,3.3057,3.3057,3.3057,3.3305,3.3345,3.3307,3.3336,3.3307,3.332,3.3313,3.3299,3.3279,3.329,3.329,3.3257,3.3221,3.3212,3.321,3.3195,3.3196,3.3238,3.3212,3.306,3.3036,3.3013,3.3,3.3239,3.3239,3.3375,3.3376,3.3377]}]]